Starlink 5403

operational
NORAD ID: 54862 Int'l Des: 2022-177 Owner: SPXS Country: US Constellation: starlink
LEOCIRCULAR

About Starlink 5403

Description loading...

Live Position

Loading 3D Globe...

Upcoming Passes

Altitude History

Altitude vs Time

uPlot chart will show altitude changes over time

Two-Line Element Set

1 54862U 22177AU 26062.16668981 .00063370 00000-0 42823-2 0 9995
2 54862 43.0008 156.1188 0001010 258.6953 333.4438 15.05733316 5818
Epoch: Mar 3, 2026 • Age: 13 hours

Current Status

Altitude 552.9 km
Velocity 7.59 km/s
Sub-Earth Point 42.80°N, 102.53°W
Launch Date Dec 28, 2022
Age 3.1 years
Type internet

Technical Details

Classification Payload
Mass 305.00 kg
Dry Mass 290.00 kg
Total Mass 305.00 kg
Length 0.20 m
Diameter 2.80 m
Span 9.00 m
Shape Box + pan
Manufacturer SPXS
Bus Type Starlink
Phase Status In Orbit
Owner/State SPXS/US

Large Constellations

Loading constellations...